Weather Service Report


007 
ASUS41 KAKQ 011214
RWRAKQ

REGIONAL WEATHER ROUNDUP
NATIONAL WEATHER SERVICE WAKEFIELD VA
800 AM EDT TUE SEP 01 2015

Note: "fair" indicates few or no clouds below 12,000 feet with no
significant weather and/or obstructions to visibility. * = Denotes
station may not report precipitation (e.g., rain,snow,etc.),
thunder or fog.

VAZ042-051-052>054-056-011300-
NORTHERN VIRGINIA
  
CITY           SKY/WX    TMP DP  RH WIND       PRES   REMARKS
WASH NATIONAL  MOSUNNY   75  70  84 CALM      30.07R                  
DULLES         SUNNY     71  68  90 NW3       30.08R                  
FORT BELVOIR   SUNNY     68  67  96 CALM      30.07R                  
QUANTICO       MOSUNNY   72  69  90 CALM      30.08R                  
FREDERICKSBRG* CLOUDY    73  73 100 CALM      30.07R                  
STAFFORD*      CLOUDY    69  68  96 CALM      30.12R FOG              
WARRENTON      MOSUNNY   69  69 100 CALM      30.08R                  
CULPEPER*      SUNNY     66  66  99 CALM      30.09R                  
MANASSAS*      PTSUNNY   68  66  94 CALM      30.08R HAZE             
LEESBURG*      SUNNY     73  70  88 NW3       30.09R                  
WINCHESTER     SUNNY     70  64  83 CALM      30.11R                  
FRONT ROYAL*   FAIR      68  63  83 S6        30.11R                  
LURAY*         FAIR      64  63  94 CALM      30.14R                  
$$

VAZ048-049-060>072-079>083-011300-
CENTRAL AND SOUTH CENTRAL VIRGINIA
  
CITY           SKY/WX    TMP DP  RH WIND       PRES   REMARKS
RICHMOND       CLOUDY    73  69  87 CALM      30.08R                  
CHESTERFIELD*  CLOUDY    70  59  68 W3        30.10R                  
PETERSBURG*    CLOUDY    72  72 100 CALM      30.09R                  
HANOVER        CLOUDY    71  69  93 CALM      30.10R FOG              
TAPPAHANNOCK*  FOG       70  68  92 CALM      30.08R VSB 1/2          
QUINTON*       CLOUDY    71  69  96 MISG      30.08R                  
CHARLOTTSVILLE SUNNY     69  66  90 CALM      30.09R                  
GORDONSVILLE*  FAIR      68  68 100 CALM      30.08R                  
ORANGE*        SUNNY     70  68  94 CALM      30.10R                  
LOUISA*        FOG       70  68  94 CALM      30.08R VSB 3/4          
BUMPASS*       CLOUDY    69  69  99 CALM      30.09R VSB 1/2          
FARMVILLE*     SUNNY     67  67 100 CALM      30.08R                  
CREWE*         CLOUDY   N/A N/A N/A CALM      30.09R VSB<1/4          
FORT PICKETT*  CLOUDY    69  68  97 SW3       30.09R VSB<1/4          
CHASE CITY*    CLOUDY    69  69 100 CALM      30.10R                  
CLARKSVILLE*   CLOUDY    66  66 100 CALM      30.10R VSB 3/4          
SOUTH HILL*    CLOUDY    69  69 100 CALM      30.15R VSB 1/4          
LAWRENCEVILLE* CLOUDY    70  70 100 CALM      30.09R                  
EMPORIA*       CLOUDY    70  70 100 CALM      30.10R                  
$$

VAZ088>098-011300-
SOUTHEAST VIRGINIA
  
CITY           SKY/WX    TMP DP  RH WIND       PRES   REMARKS
NORFOLK        CLOUDY    76  70  82 N3        30.05S                  
VIRGINIA BEACH PTSUNNY   76  72  87 CALM      30.05R                  
NORFOLK NAVAL  CLOUDY    76  70  82 N5        30.07S                  
WEST POINT*    CLOUDY    74  70  87 CALM      30.09R                  
SALUDA*        CLOUDY    71  69  94 NW3       30.07R                  
NEWPORT NEWS   PTSUNNY   76  70  82 N5        30.07R                  
LANGLEY AFB    CLOUDY    74  70  87 NW3       30.05S                  
FORT EUSTIS    CLOUDY    74  74 100 VRB2      30.05R                  
WILLIAMSBURG*  PTSUNNY   73  72  94 CALM      30.08S                  
HR EXEC AP*      N/A     72  70  94 CALM      30.08S                  
FRANKLIN*      CLOUDY    70  69  97 CALM      30.08S                  
WAKEFIELD      CLOUDY    73  69  87 CALM      30.07S FOG              
$$

VAZ020-022-025-037-045-011300-
WEST CENTRAL AND SOUTHWEST VIRGINIA
  
CITY           SKY/WX    TMP DP  RH WIND       PRES   REMARKS
STAUNTON*      SUNNY     64  62  91 CALM      30.18R FOG              
WAYNESBORO*    FAIR      67  63  85 CALM      30.16R                  
HOT SPRINGS VA SUNNY     67  62  83 NW7       30.26S                  
LYNCHBURG      SUNNY     65  65 100 CALM      30.13R                  
DANVILLE       SUNNY     68  66  93 SW3       30.11R                  
SOUTH BOSTON*  FAIR      66  65  95 CALM      30.10R                  
MARTINSVILLE   SUNNY     64  64 100 CALM      30.16R                  
ROANOKE        SUNNY     69  63  81 NW5       30.17R                  
BLACKSBURG     SUNNY     63  63 100 CALM      30.24R FOG              
DUBLIN*        PTSUNNY   63  63 100 CALM      30.23R FOG              
MARION*        SUNNY     62  60  94 CALM      30.27R FOG              
HILLSVILLE*    SUNNY     60  60  99 CALM      30.23R FOG              
RICHLANDS*     FAIR      65  36  35 CALM      30.24S                  
WISE*          SUNNY     66  64  94 S3        30.25R                  
ABINGDON*      SUNNY     66  63  89 E3        30.22R                  
$$

MDZ021>025-VAZ099-100-011300-
SOUTHERN MARYLAND AND THE DELMARVA PENINSULA
  
CITY           SKY/WX    TMP DP  RH WIND       PRES   REMARKS
PATUXENT RIVER PTSUNNY   71  70  96 W6        30.06R FOG              
BAY BRIDGE APT   N/A     73  70  88 W5        30.05S                  
LEONARDTOWN    NOT AVBL                                               
DOVER          SUNNY     73  73 100 W5        30.04R                  
GEORGETOWN     SUNNY     72  70  93 W3        30.05S                  
EASTON         SUNNY     72  72 100 CALM      30.09R                  
CAMBRIDGE      SUNNY     72  68  88 CALM      30.05S                  
SALISBURY      MOSUNNY   69  68  96 CALM      30.05R                  
OCEAN CITY     SUNNY     72  70  93 W3        30.05S                  
WALLOPS ISLAND MOSUNNY   75  72  90 W3        30.06R                  
ACCOMACK*      MOSUNNY   72  64  78 CALM      30.06R                  
$$

NCZ012>017-030>032-011300-
NORTH CENTRAL AND EASTERN NORTH CAROLINA
  
CITY           SKY/WX    TMP DP  RH WIND       PRES   REMARKS
ROANOKE RAPIDS CLOUDY    70  70 100 CALM      30.09R                  
RALEIGH        MOSUNNY   69  68  96 CALM      30.11R                  
ELIZABETH CITY PTSUNNY   75  73  93 NW5       30.06R                  
AHOSKIE*       DRIZZLE   70  69  98 CALM      30.09R                  
EDENTON*       PTSUNNY   70  69  98 NW3       30.07R FOG              
CURRITUCK*     PTSUNNY   74  71  93 CALM      30.06R                  
KILL DEVIL HLS SUNNY     77  75  95 CALM      30.03S                  
MANTEO         CLOUDY    76  74  93 N5        30.05R                  
CAPE HATTERAS  CLOUDY    78  74  87 VRB6      30.04R                  
TARBORO*       CLOUDY    71  70  96 NW3       30.10R                  
GOLDSBORO      CLOUDY    74  72  94 NW6       30.08R                  
WASHINGTON     CLOUDY    72  71  97 CALM      30.08R                  
GREENVILLE     CLOUDY    72  72 100 CALM      30.10R FOG              
NEW BERN       CLOUDY    76  73  91 NW6       30.08R                  
WILMINGTON     CLOUDY    73  72  96 NW3       30.09R                  
$$

VAZ048-011300-
ELSEWHERE
  
CITY           SKY/WX    TMP DP  RH WIND       PRES   REMARKS
HARRISBURG PA  SUNNY     73  66  78 NW7       30.07R                  
BALTIMORE      MOSUNNY   73  69  87 CALM      30.05R                  
ANNAPOLIS      SUNNY     74  70  87 NW5       30.05R                  
ANDREWS AFB    SUNNY     73  70  90 W3        30.06R                  
PHILADELPHIA   SUNNY     76  68  76 N3        30.05R                  
HENDERSON NC   FOG       68  66  93 SW3       30.11R VSB 3/4          
GREENSBORO     MOSUNNY   72  69  90 CALM      30.12R                  
ROCKY MOUNT    CLOUDY    73  70  90 NW3       30.10R                  
$$

VAZ100-011300-
MARINE
  
STATION/POSITION TIME  TEMP    WIND        PRES    WAVE   SWELL
                       AIR SEA DIR/SP/G            HT/PER HT/PER
                 (UTC) (F)     (DEG/KT/KT) (MB)    (FT/S) (FT/S)
BRANDYWINE LGT   1100   73 76  280/  7/  8 1017.4R
CAPE MAY NJ      1100   74 79  280/  6/  8 1016.8R
LEWES DE         1100   71 75  230/  1/  2 1017.1R
15NM E FENWICK I 1150   75 78  270/  6/  6 1017.5R   2/ 8   2/ 8
OCEAN-CITY-INLET 1100   71 77  250/  3/  4 1016.6R
GOOSES REEF MD   1200   75 79  280/  6/  8 1018.9R
COVE POINT MD    1100   72     280/  3/  5 1018.3R
SOLOMONS ISLAND  1100      80                N/A
BISHOPS HEAD MD  1100   75 77  270/  5/  6 1016.6R
PINEY POINT MD   1105          280/  4/  6   N/A
POTOMAC MD       1200   73 79  290/  4/  6 1017.0R   1
CAMBRIDGE MD     1100   70 80  200/  4/  5 1016.5R
LEWISETTA VA     1100   71 79  240/  3/  4 1017.3R
RAPPAHANNOCK LGT 1100          310/  4/  4 1017.9R
STINGRAY PT      1100   74 79  310/  2/  4 1018.0R   0
YORK RVR RNG VA  1100   74     300/  4/  5 1017.1R
YORKTOWN VA      1100   73 80  260/  3/  4 1017.4R
JAMESTOWN VA     1200   72 81   10/  4/  4   N/A
DOMINION TERM VA 1100   75     300/  6/  7 1017.5R
KIPTOPEKE VA     1100      78  360/  4/  5   N/A
CHES BAY BRIDGE  1100   75 79  310/  5/  6 1017.1R
CAPE HENRY VA    1100   74     280/  2/  2   N/A
CHESAPEAKE LGHT  1100   75     340/  5/  6 1018.0R
WILLOUBY STN VA  1100   74     360/  6/  6 1018.5R
CAPE HENRY BUOY  1128      78                N/A     2/ 8
1ST LANDING BUOY 1200      79              1017.3R   1/ 5
CAPE CHARLES BUO 1126      78                N/A     2/ 9   2/ 9
OFFSHORE WE BUOY 1111      78                N/A     2/ 7   2/ 7
64NM E OF VA BCH 1150   78 78   60/  6/  8 1016.8R   2/ 8   2/ 8
DUCK PIER NC     1100   76 78   20/  5/  6 1016.3S
44100 DUCK FRF   1124      77                N/A     2/10
44056 DUCK FRF   1111      78                N/A     2/ 8
OREGON INLET NC  1100   75 79   10/  4/  6 1016.7R
HATTERAS NC      1100   77 79  340/ 12/ 14 1016.3R
DIAMOND SHLS NC  1150   79 84   10/ 12/ 14 1016.8R   3/ 7   2/ 7
CAPE LOOKOUT NC  1200   76     300/ 11/ 13 1017.7R
$$

Return to Home page


Western Regional Climate Center, wrcc@dri.edu